Watertown, SD

12:20 PM CDT on July 26, 2017 (GMT -0500)
Watertown Municipal

Weather History for KATY - February, 2014

Change the Weather History Date:

Monday, February 17, 2014

  Actual Average Record
Temperature  
Mean Temperature 28 °F 18 °F  
Max Temperature 36 °F 28 °F 55 °F (1981)
Min Temperature 20 °F 8 °F -27 °F (1936)
Degree Days  
Heating Degree Days 37 47  
Month to date heating degree days 1026 838  
Since 1 July heating degree days 6368 5920  
Cooling Degree Days 0 0  
Month to date cooling degree days 0 0  
Year to date cooling degree days 0 0  
Moisture  
Dew Point 23 °F    
Average Humidity 82    
Maximum Humidity 100    
Minimum Humidity 63    
Precipitation  
Precipitation 0.01 in 0.02 in 0.25 in (1962)
Month to date precipitation 0.08 0.29  
Year to date precipitation 0.38 0.81  
Snow  
Snow 0.20 in - - ()
Month to date snowfall 0.8  
Since 1 July snowfall 16.9  
Snow Depth 10.00 in    
Sea Level Pressure  
Sea Level Pressure 29.70 in    
Wind  
Wind Speed 13 mph (West)    
Max Wind Speed 23 mph    
Max Gust Speed 32 mph    
Visibility 8 miles    
Events Snow    
T = Trace of Precipitation, MM = Missing Value Source: NWS Daily Summary

Daily Weather History Graph

Daily Weather History Graph

Search for Another Location

Airport or City:

Trip Planner

Search our weather history database for the weather conditions in past years. The results will help you decide how hot, cold, wet, or windy it might be!

Date:

Astronomy

Feb. 17, 2014 Rise Set
Actual Time 7:26 AM CST 5:59 PM CST
Civil Twilight 6:56 AM CST 6:29 PM CST
Nautical Twilight 6:21 AM CST 7:03 PM CST
Astronomical Twilight 5:48 AM CST 7:37 PM CST
Moon 9:05 PM CST (2/17) 8:18 AM CST (2/17)
Length of Visible Light 11h 33m
Length of Day
10h 33m
Waning Gibbous, 93% of the Moon is Illuminated
Feb 17
Waning Gibbous
Feb 22
Last Quarter
Mar 1
New
Mar 8
First Quarter
Mar 16
Full

Hourly Weather History & Observations

Time (CST) Temp. Windchill Dew Point Humidity Pressure Visibility Wind Dir Wind Speed Gust Speed Precip Events Conditions
12:53 AM 24.1 °F 10.6 °F 21.0 °F 88% 29.69 in 9.0 mi SSE 17.3 mph - N/A   Overcast
1:53 AM 25.0 °F 14.2 °F 23.0 °F 92% 29.68 in 9.0 mi South 11.5 mph - N/A   Overcast
2:21 AM 27.0 °F 18.7 °F 24.1 °F 89% 29.59 in 1.8 mi South 8.1 mph - 0.00 in Snow Light Snow
2:30 AM 27.0 °F 20.5 °F 25.0 °F 92% 29.59 in 3.0 mi South 5.8 mph - 0.00 in Snow Light Snow
2:53 AM 27.0 °F 23.0 °F 26.1 °F 96% 29.67 in 5.0 mi SW 3.5 mph - 0.00 in   Overcast
3:14 AM 28.9 °F 18.6 °F 26.1 °F 89% 29.59 in 1.8 mi West 12.7 mph - 0.00 in Snow Light Snow
3:20 AM 28.0 °F 16.5 °F 26.1 °F 92% 29.59 in 1.2 mi WNW 15.0 mph 20.7 mph 0.00 in Snow Light Snow
3:27 AM 27.0 °F 14.3 °F 25.0 °F 92% 29.59 in 2.0 mi WNW 17.3 mph - 0.00 in Snow Light Snow
3:36 AM 27.0 °F 15.2 °F 24.1 °F 89% 29.60 in 2.0 mi WNW 15.0 mph - 0.00 in Snow Light Snow
3:53 AM 26.1 °F 14.5 °F 24.1 °F 92% 29.69 in 3.0 mi WNW 13.8 mph - 0.00 in Snow Light Snow
4:08 AM 26.1 °F 14.5 °F 24.1 °F 92% 29.60 in 2.5 mi NW 13.8 mph - 0.00 in Snow Light Snow
4:18 AM 26.1 °F 14.5 °F 24.1 °F 92% 29.60 in 5.0 mi NNW 13.8 mph - 0.00 in Snow Light Snow
4:46 AM 26.1 °F 13.6 °F 23.0 °F 88% 29.65 in 7.0 mi WNW 16.1 mph - 0.00 in   Overcast
4:53 AM 26.1 °F 12.7 °F 23.0 °F 88% 29.73 in 7.0 mi WNW 18.4 mph 25.3 mph 0.00 in   Overcast
5:53 AM 24.1 °F 12.0 °F 21.0 °F 88% 29.74 in 9.0 mi WNW 13.8 mph - 0.00 in   Overcast
6:22 AM 23.0 °F 13.1 °F 19.9 °F 88% 29.65 in 10.0 mi NW 9.2 mph - N/A   Overcast
6:44 AM 23.0 °F 13.1 °F 19.9 °F 88% 29.65 in 10.0 mi WNW 9.2 mph - N/A   Mostly Cloudy
6:53 AM 21.9 °F 11.0 °F 19.9 °F 92% 29.75 in 10.0 mi WNW 10.4 mph - N/A   Partly Cloudy
7:53 AM 19.9 °F 8.6 °F 18.0 °F 92% 29.75 in 10.0 mi West 10.4 mph - N/A   Clear
8:53 AM 26.1 °F 14.0 °F 21.9 °F 84% 29.77 in 10.0 mi West 15.0 mph - N/A   Clear
9:53 AM 28.9 °F 16.5 °F 21.9 °F 75% 29.77 in 10.0 mi West 18.4 mph 25.3 mph N/A   Clear
10:53 AM 32.0 °F 19.5 °F 21.9 °F 66% 29.78 in 10.0 mi WNW 21.9 mph 29.9 mph N/A   Clear
11:53 AM 33.1 °F 20.6 °F 23.0 °F 66% 29.80 in 10.0 mi West 23.0 mph 31.1 mph N/A   Clear
12:53 PM 34.0 °F 22.1 °F 24.1 °F 67% 29.79 in 10.0 mi WNW 21.9 mph 27.6 mph N/A   Clear
1:53 PM 35.1 °F 25.5 °F 25.0 °F 67% 29.80 in 10.0 mi WNW 15.0 mph 29.9 mph N/A   Clear
2:53 PM 36.0 °F 27.1 °F 27.0 °F 70% 29.79 in 10.0 mi West 13.8 mph - N/A   Clear
3:53 PM 35.1 °F 28.6 °F 27.0 °F 72% 29.79 in 10.0 mi West 8.1 mph - N/A   Clear
4:53 PM 35.1 °F 26.9 °F 27.0 °F 72% 29.79 in 10.0 mi WSW 11.5 mph - N/A   Clear
5:53 PM 33.1 °F 25.5 °F 27.0 °F 78% 29.79 in 10.0 mi SW 9.2 mph - N/A   Clear
6:53 PM 28.9 °F 21.1 °F 24.1 °F 82% 29.78 in 10.0 mi SSW 8.1 mph - N/A   Clear
7:53 PM 28.0 °F 22.8 °F 23.0 °F 81% 29.75 in 10.0 mi South 4.6 mph - N/A   Clear
8:53 PM 28.9 °F 20.4 °F 23.0 °F 78% 29.73 in 10.0 mi SSE 9.2 mph - N/A   Clear
9:53 PM 27.0 °F 18.0 °F 21.0 °F 78% 29.70 in 10.0 mi South 9.2 mph - N/A   Clear
10:53 PM 27.0 °F 18.0 °F 19.9 °F 75% 29.68 in 10.0 mi SSE 9.2 mph - N/A   Clear
11:53 PM 28.0 °F 20.0 °F 19.9 °F 72% 29.66 in 10.0 mi SSE 8.1 mph - N/A   Clear